This is the latest recevied weather packets stored in our database for station/object SV9TNF-57. If no packets are shown the sender has not sent any weather packets the latest 10 day(s).
| Time | Temp. | Humidity | Pressure | Rain* | Wind** | Luminosity | Snow |
|---|---|---|---|---|---|---|---|
| 1788187370 | 30.56° C | 36% | 994.7 hPa | 0 mm | 5.36 m/s, 20° | - | - |
| 1788187069 | 30.56° C | 36% | 994.9 hPa | 0 mm | 9.39 m/s, 287° | - | - |
| 1788186770 | 31.11° C | 35% | 994.8 hPa | 0 mm | 0.89 m/s, 293° | - | - |
| 1788186469 | 31.11° C | 34% | 994.8 hPa | 0 mm | 4.92 m/s, 329° | - | - |
| 1788186169 | 31.11° C | 35% | 994.6 hPa | 0 mm | 4.92 m/s, 253° | - | - |
| 1788185869 | 31.11° C | 35% | 994.8 hPa | 0 mm | 8.05 m/s, 83° | - | - |
| 1788185569 | 31.11° C | 36% | 994.7 hPa | 0 mm | 0.89 m/s, 214° | - | - |
| 1788185269 | 31.67° C | 36% | 994.5 hPa | 0 mm | 1.34 m/s, 259° | - | - |
| 1788184969 | 31.67° C | 34% | 994.6 hPa | 0 mm | 3.58 m/s, 22° | - | - |
| 1788184669 | 32.22° C | 33% | 994.5 hPa | 0 mm | 5.36 m/s, 262° | - | - |
| 1788184369 | 32.22° C | 34% | 994.9 hPa | 0 mm | 0.89 m/s, 254° | - | - |
| 1788184069 | 31.11° C | 36% | 994.5 hPa | 0 mm | 2.68 m/s, 173° | - | - |
| 1788183768 | 31.67° C | 37% | 994.5 hPa | 0 mm | 4.92 m/s, 270° | - | - |
| 1788183468 | 31.11° C | 39% | 994.6 hPa | 0 mm | 1.79 m/s, 270° | - | - |
| 1788183168 | 30.56° C | 39% | 994.6 hPa | 0 mm | 3.58 m/s, 106° | - | - |
| 1788182869 | 31.11° C | 40% | 994.7 hPa | 0 mm | 7.15 m/s, 344° | - | - |
| 1788182568 | 31.67° C | 39% | 994.6 hPa | 0 mm | 1.34 m/s, 186° | - | - |
| 1788182268 | 31.11° C | 39% | 994.6 hPa | 0 mm | 9.83 m/s, 239° | - | - |
| 1788181968 | 30.56° C | 43% | 994.7 hPa | 0 mm | 1.79 m/s, 295° | - | - |
| 1788181669 | 31.11° C | 43% | 994.6 hPa | 0 mm | 4.02 m/s, 346° | - | - |
| 1788181368 | 31.11° C | 43% | 994.8 hPa | 0 mm | 8.94 m/s, 38° | - | - |
| 1788181068 | 30.56° C | 42% | 994.9 hPa | 0 mm | 0.45 m/s, 21° | - | - |
| 1788180768 | 30.56° C | 40% | 994.9 hPa | 0 mm | 9.83 m/s, 43° | - | - |
| 1788180468 | 30.56° C | 41% | 994.9 hPa | 0 mm | 0.89 m/s, 343° | - | - |
| 1788180168 | 30.56° C | 41% | 995 hPa | 0 mm | 5.81 m/s, 355° | - | - |
* Rain latest hour (hover to see other rain measurements)
** Current wind speed in m/s (hover to see current wind gust speed)